STARLINK-2524, 48304

Orbit data source: Space-Track

STARLINK-2524, 48304 is a payload satellite owned by SpaceX/Seattle (US) in LEO that was launched on Thu, 29 Apr 2021 UTC via an FALCON 9 launch vehicle from the Air Force Eastern Test Range (AFETR). Payload-class satellites include a variety of spacecraft equipped with specific instruments for various scientific and technological missions. These include communications satellites like Starlink; space stations such as the ISS; scientific satellites like the Hubble; Earth observation satellites from companies like Planet Labs, Umbra, and HawkEye 360; GPS; miniature CubeSats for education and research; and military/defense satellites.

Loading next visibility...
Identifier
48304, 2021-036AE
Orbit
LEO
Country
Flag of USUS
Related business
Manufacturer
SpaceX/Seattle
Mission
Operational Commercial Communications
Bus & Motor
STARLINK, Unknown motor
Mass
260 kg wet, ~248 kg dry
Launch date (UTC)
2021-04-29 (5 years ago)
Launch vehicle
FALCON 9
Launch site
Air Force Eastern Test Range (AFETR)
Object type
Payload
Rocket body
Debris
Shape & HBR
Box + 1 Pan, 10.1 m
Radar Cross Section
13.562 m², Large (>1 m²)

Expand to show TLE details & history
Last TLE update: 4 hours ago

TLE from 4 hours ago
0 STARLINK-2524
1 48304U 21036AE  25353.30308698 -.00001312  00000-0 -69160-4 0  9991
2 48304  53.0568  92.4871 0001270  86.9223 273.1911 15.06406600256059
Epoch: 2025-12-19T07:16Z
TLE epoch observation values (Epoch: 2025-12-19T07:16:26.715Z)
Latitude
-0.00003°
Longitude
-104.77041°
Altitude
548.022 km
Speed
7.589 km/s
True Right ascension
06h 09m 56s
True Declination
0° 00' 00"
Sunlit
Object was in full shadow at epoch
Visualization orbit readout
Latitude
Unknown
Longitude
Unknown
Altitude
Unknown
Speed
Unknown
Apparent Right ascension
Unknown
Apparent Declination
Unknown
Sunlit
N/A
Visualization observer readout
Local Sidereal Time
10:14:31
Azimuth
Unknown
Elevation
Unknown
Doppler factor
Unknown
Orbital elements
Apogee altitude
548.341 km
Perigee altitude
546.582 km
Semi-major axis
6,925.599 km
Eccentricity
0.00013
Inclination
53.0568°
RAAN
92.4871°
Arg. of periapsis
86.9223°
True anomaly
273.17657°
Mean anomaly
273.1911°
Eccentric anomaly
273.18383°
Mean motion
3.7658 °/min
Orbital period
95.6 mins
BSTAR
-0.00006916
Loading maneuver chart data...
Computing Atmospheric mass density...
Loading historical data...
Loading historical data...
Loading historical data...
Loading historical data...
Loading historical data...
Loading historical data...
Loading historical data...

Documentation

Showing up to 5 results
|